| time (UTC) | temp F | wind direction | speed knots | gust knots | rain 1hr in | rain 24hr in | rain mn in | humidity % | barometer mb |
| 20260510055227 | 50 | 337 | 2.6 | 5.2 | 0.00 | 0.00 | 0.00 | 92 | 965.1 |
| 20260510054224 | 50 | 136 | 2.6 | 3.5 | 0.00 | 0.00 | 0.00 | 94 | 964.6 |
| 20260510053221 | 52 | 136 | 2.6 | 3.5 | 0.00 | 0.00 | 0.00 | 94 | 965.0 |
| 20260510052218 | 52 | 136 | 1.7 | 2.6 | 0.00 | 0.00 | 0.00 | 95 | 965.4 |
| 20260510051214 | 53 | 137 | 3.5 | 9.6 | 0.00 | 0.00 | 0.00 | 96 | 965.0 |
| 20260510050211 | 52 | 137 | 0.9 | 0.9 | 0.00 | 0.00 | 0.00 | 96 | 964.4 |
| 20260510045208 | 52 | 136 | 0.9 | 1.7 | 0.00 | 0.00 | 0.00 | 96 | 964.1 |
| 20260510044205 | 52 | 135 | 0.9 | 1.7 | 0.00 | 0.00 | 0.00 | 96 | 964.0 |
| 20260510043202 | 52 | 136 | 0.9 | 1.7 | 0.00 | 0.00 | 0.00 | 96 | 963.5 |
| 20260510042159 | 52 | 135 | 0.0 | 0.9 | 0.00 | 0.00 | 0.00 | 96 | 963.3 |
| 20260510041156 | 52 | 136 | 0.9 | 0.9 | 0.00 | 0.00 | 0.00 | 96 | 963.2 |
| 20260510040152 | 52 | 136 | 0.9 | 0.9 | 0.00 | 0.00 | 0.00 | 96 | 963.2 |
| 20260510035150 | 52 | 137 | 0.9 | 1.7 | 0.00 | 0.00 | 0.00 | 96 | 963.1 |
| 20260510034146 | 52 | 136 | 0.9 | 0.9 | 0.00 | 0.00 | 0.00 | 96 | 963.3 |
| 20260510033143 | 52 | 136 | 0.9 | 0.9 | 0.00 | 0.00 | 0.00 | 96 | 963.2 |
| 20260510032140 | 52 | 136 | 0.9 | 0.9 | 0.00 | 0.00 | 0.00 | 96 | 963.1 |
| 20260510031137 | 52 | 136 | 0.9 | 1.7 | 0.00 | 0.00 | 0.00 | 96 | 963.2 |
| 20260510030134 | 52 | 137 | 1.7 | 2.6 | 0.00 | 0.00 | 0.00 | 96 | 963.2 |
| 20260510025131 | 52 | 137 | 1.7 | 2.6 | 0.00 | 0.00 | 0.00 | 96 | 963.5 |
| 20260510024127 | 51 | 137 | 0.9 | 0.9 | 0.00 | 0.00 | 0.00 | 96 | 962.9 |
| 20260510023124 | 51 | 136 | 0.9 | 0.9 | 0.00 | 0.00 | 0.00 | 96 | 962.8 |
| 20260510022121 | 51 | 136 | 0.9 | 0.9 | 0.00 | 0.00 | 0.00 | 96 | 962.9 |
| 20260510021118 | 51 | 136 | 0.9 | 1.7 | 0.00 | 0.00 | 0.00 | 96 | 963.0 |
| 20260510020115 | 52 | 137 | 0.9 | 0.9 | 0.00 | 0.00 | 0.00 | 96 | 962.9 |
| 20260510015112 | 52 | 135 | 0.9 | 0.9 | 0.00 | 0.00 | 0.00 | 95 | 963.0 |
| 20260510014109 | 52 | 136 | 0.9 | 1.7 | 0.00 | 0.00 | 0.00 | 95 | 962.9 |
| 20260510013106 | 52 | 136 | 0.9 | 1.7 | 0.00 | 0.00 | 0.00 | 95 | 962.7 |
| 20260510012102 | 52 | 136 | 0.9 | 0.9 | 0.00 | 0.00 | 0.00 | 95 | 962.5 |
| 20260510011059 | 53 | 137 | 0.9 | 1.7 | 0.00 | 0.00 | 0.00 | 94 | 962.4 |
| 20260510010056 | 53 | 136 | 0.9 | 1.7 | 0.00 | 0.00 | 0.00 | 94 | 962.4 |
| 20260510005053 | 54 | 137 | 0.9 | 0.9 | 0.00 | 0.00 | 0.00 | 94 | 962.4 |
| 20260510004050 | 54 | 137 | 0.9 | 1.7 | 0.00 | 0.00 | 0.00 | 94 | 962.5 |
| 20260510003047 | 54 | 136 | 0.9 | 1.7 | 0.00 | 0.00 | 0.00 | 94 | 962.4 |
| 20260510002043 | 54 | 135 | 0.9 | 0.9 | 0.00 | 0.00 | 0.00 | 94 | 962.3 |
| 20260510001040 | 54 | 136 | 1.7 | 1.7 | 0.00 | 0.00 | 0.00 | 94 | 962.2 |
| 20260510000037 | 54 | 136 | 0.9 | 1.7 | 0.00 | 0.00 | 0.00 | 94 | 962.2 |
| 20260509235034 | 54 | 137 | 0.9 | 1.7 | 0.00 | 0.00 | 0.00 | 94 | 962.3 |
| 20260509234031 | 54 | 136 | 1.7 | 2.6 | 0.00 | 0.00 | 0.00 | 94 | 962.2 |
| 20260509233028 | 54 | 136 | 1.7 | 2.6 | 0.00 | 0.00 | 0.00 | 94 | 962.1 |
| 20260509232025 | 54 | 137 | 0.9 | 1.7 | 0.00 | 0.00 | 0.00 | 93 | 962.0 |
| 20260509231022 | 53 | 136 | 1.7 | 2.6 | 0.00 | 0.00 | 0.00 | 93 | 962.5 |
| 20260509230018 | 53 | 129 | 3.5 | 6.1 | 0.00 | 0.00 | 0.00 | 92 | 962.7 |
| 20260509225015 | 56 | 330 | 3.5 | 7.8 | 0.00 | 0.00 | 0.00 | 88 | 962.6 |
| 20260509224012 | 65 | 330 | 6.1 | 13.9 | 0.00 | 0.00 | 0.00 | 66 | 962.0 |
| 20260509223009 | 66 | 166 | 2.6 | 5.2 | 0.00 | 0.00 | 0.00 | 56 | 960.1 |
| 20260509222006 | 67 | 239 | 2.6 | 5.2 | 0.00 | 0.00 | 0.00 | 56 | 960.0 |
| 20260509221003 | 67 | 270 | 1.7 | 3.5 | 0.00 | 0.00 | 0.00 | 56 | 959.9 |
| 20260509220000 | 67 | 158 | 2.6 | 6.1 | 0.00 | 0.00 | 0.00 | 55 | 960.0 |
| 20260509214956 | 68 | 220 | 2.6 | 7.0 | 0.00 | 0.00 | 0.00 | 54 | 960.0 |
| 20260509213953 | 69 | 275 | 1.7 | 4.3 | 0.00 | 0.00 | 0.00 | 55 | 959.7 |
| 20260509212950 | 69 | 215 | 2.6 | 4.3 | 0.00 | 0.00 | 0.00 | 53 | 959.5 |
| 20260509211947 | 69 | 165 | 3.5 | 7.0 | 0.00 | 0.00 | 0.00 | 55 | 959.6 |
| 20260509210944 | 69 | 119 | 2.6 | 5.2 | 0.00 | 0.00 | 0.00 | 56 | 959.9 |
| 20260509205941 | 68 | 146 | 2.6 | 5.2 | 0.00 | 0.00 | 0.00 | 55 | 959.9 |
| 20260509204937 | 68 | 187 | 3.5 | 7.0 | 0.00 | 0.00 | 0.00 | 57 | 960.2 |
| 20260509203934 | 69 | 217 | 2.6 | 4.3 | 0.00 | 0.00 | 0.00 | 54 | 960.3 |
| 20260509202931 | 68 | 241 | 2.6 | 5.2 | 0.00 | 0.00 | 0.00 | 53 | 960.4 |
| 20260509201928 | 68 | 145 | 1.7 | 3.5 | 0.00 | 0.00 | 0.00 | 56 | 960.6 |
| 20260509200925 | 68 | 242 | 1.7 | 3.5 | 0.00 | 0.00 | 0.00 | 57 | 960.7 |
| 20260509195922 | 68 | 227 | 3.5 | 5.2 | 0.00 | 0.00 | 0.00 | 57 | 960.8 |
| 20260509194919 | 68 | 268 | 3.5 | 7.0 | 0.00 | 0.00 | 0.00 | 56 | 960.7 |
| 20260509193916 | 68 | 139 | 5.2 | 10.4 | 0.00 | 0.00 | 0.00 | 57 | 960.7 |
| 20260509192913 | 68 | 161 | 4.3 | 8.7 | 0.00 | 0.00 | 0.00 | 57 | 961.3 |
| 20260509191909 | 67 | 352 | 4.3 | 7.8 | 0.00 | 0.00 | 0.00 | 57 | 961.4 |
| 20260509190906 | 67 | 162 | 2.6 | 9.6 | 0.00 | 0.00 | 0.00 | 58 | 961.6 |
| 20260509185903 | 67 | 223 | 2.6 | 6.1 | 0.00 | 0.00 | 0.00 | 56 | 961.6 |
| 20260509184900 | 66 | 138 | 2.6 | 6.1 | 0.00 | 0.00 | 0.00 | 57 | 961.8 |
| 20260509183857 | 67 | 139 | 3.5 | 7.8 | 0.00 | 0.00 | 0.00 | 56 | 961.8 |
| 20260509182853 | 67 | 158 | 3.5 | 7.0 | 0.00 | 0.00 | 0.00 | 57 | 961.6 |
| 20260509181850 | 68 | 302 | 1.7 | 5.2 | 0.00 | 0.00 | 0.00 | 57 | 961.6 |
| 20260509180847 | 68 | 239 | 2.6 | 6.1 | 0.00 | 0.00 | 0.00 | 56 | 961.7 |
| 20260509175844 | 67 | 194 | 3.5 | 7.0 | 0.00 | 0.00 | 0.00 | 56 | 961.8 |
| 20260509174841 | 67 | 146 | 4.3 | 7.0 | 0.00 | 0.00 | 0.00 | 60 | 961.7 |
| 20260509173838 | 67 | 239 | 2.6 | 6.1 | 0.00 | 0.00 | 0.00 | 59 | 961.9 |
| 20260509172835 | 66 | 152 | 1.7 | 4.3 | 0.00 | 0.00 | 0.00 | 64 | 961.9 |
| 20260509171832 | 66 | 134 | 5.2 | 9.6 | 0.00 | 0.00 | 0.00 | 62 | 961.9 |
| 20260509170828 | 66 | 156 | 3.5 | 7.0 | 0.00 | 0.00 | 0.00 | 61 | 962.1 |
| 20260509165825 | 66 | 262 | 1.7 | 4.3 | 0.00 | 0.00 | 0.00 | 62 | 962.2 |
| 20260509164822 | 64 | 312 | 1.7 | 4.3 | 0.00 | 0.00 | 0.00 | 66 | 962.2 |
| 20260509163819 | 64 | 118 | 2.6 | 4.3 | 0.00 | 0.00 | 0.00 | 66 | 962.1 |
| 20260509162816 | 63 | 162 | 1.7 | 4.3 | 0.00 | 0.00 | 0.00 | 64 | 962.5 |
| 20260509161813 | 63 | 223 | 3.5 | 5.2 | 0.00 | 0.00 | 0.00 | 66 | 962.8 |
| 20260509160810 | 62 | 293 | 3.5 | 6.1 | 0.00 | 0.00 | 0.00 | 67 | 963.0 |
| 20260509155806 | 61 | 9 | 1.7 | 4.3 | 0.00 | 0.00 | 0.00 | 69 | 962.9 |
| 20260509154803 | 61 | 160 | 1.7 | 2.6 | 0.00 | 0.00 | 0.00 | 73 | 963.1 |
| 20260509153800 | 60 | 352 | 1.7 | 5.2 | 0.00 | 0.00 | 0.00 | 75 | 962.9 |
| 20260509152757 | 60 | 203 | 2.6 | 5.2 | 0.00 | 0.00 | 0.00 | 72 | 962.8 |
| 20260509151754 | 59 | 198 | 0.9 | 3.5 | 0.00 | 0.00 | 0.00 | 78 | 962.6 |
| 20260509150751 | 59 | 256 | 1.7 | 3.5 | 0.00 | 0.00 | 0.00 | 79 | 962.6 |
| 20260509145747 | 58 | 238 | 1.7 | 2.6 | 0.00 | 0.00 | 0.00 | 81 | 962.6 |
| 20260509144744 | 58 | 311 | 1.7 | 2.6 | 0.00 | 0.00 | 0.00 | 86 | 962.5 |
| 20260509143741 | 57 | 167 | 1.7 | 1.7 | 0.00 | 0.00 | 0.00 | 86 | 962.5 |
| 20260509142738 | 56 | 162 | 0.9 | 2.6 | 0.00 | 0.00 | 0.00 | 86 | 962.5 |
| 20260509141735 | 56 | 148 | 2.6 | 4.3 | 0.00 | 0.00 | 0.00 | 89 | 962.5 |
| 20260509140732 | 55 | 118 | 0.9 | 0.9 | 0.00 | 0.00 | 0.00 | 91 | 962.5 |
| 20260509135729 | 55 | 200 | 0.9 | 0.9 | 0.00 | 0.00 | 0.00 | 92 | 962.5 |
| 20260509134726 | 54 | 150 | 2.6 | 4.3 | 0.00 | 0.00 | 0.00 | 93 | 962.5 |
| 20260509133722 | 54 | 208 | 0.9 | 0.9 | 0.00 | 0.00 | 0.00 | 96 | 962.5 |
| 20260509132719 | 53 | 173 | 0.9 | 1.7 | 0.00 | 0.00 | 0.00 | 97 | 962.4 |
| 20260509131716 | 53 | 154 | 0.9 | 1.7 | 0.00 | 0.00 | 0.00 | 97 | 962.5 |
| 20260509130713 | 53 | 99 | 0.0 | 0.9 | 0.00 | 0.00 | 0.00 | 97 | 962.5 |
| 20260509125710 | 53 | 256 | 0.0 | 0.0 | 0.00 | 0.00 | 0.00 | 97 | 962.6 |
| 20260509124707 | 52 | 114 | 0.9 | 1.7 | 0.00 | 0.00 | 0.00 | 97 | 962.6 |
| 20260509123704 | 52 | 164 | 1.7 | 2.6 | 0.00 | 0.00 | 0.00 | 97 | 962.7 |
| 20260509122701 | 52 | 233 | 0.0 | 0.0 | 0.00 | 0.00 | 0.00 | 97 | 962.8 |
| 20260509121657 | 52 | 165 | 1.7 | 1.7 | 0.00 | 0.00 | 0.00 | 97 | 962.8 |
| 20260509120654 | 52 | 142 | 1.7 | 1.7 | 0.00 | 0.00 | 0.00 | 97 | 962.9 |
| 20260509115651 | 52 | 214 | 0.9 | 1.7 | 0.00 | 0.00 | 0.00 | 97 | 962.9 |
| 20260509114648 | 51 | 104 | 0.0 | 0.9 | 0.00 | 0.00 | 0.00 | 97 | 962.9 |
| 20260509113645 | 51 | 134 | 0.9 | 1.7 | 0.00 | 0.00 | 0.00 | 97 | 962.9 |
| 20260509112642 | 51 | 168 | 0.9 | 1.7 | 0.00 | 0.00 | 0.00 | 97 | 962.8 |
| 20260509111639 | 51 | 170 | 0.9 | 1.7 | 0.00 | 0.00 | 0.00 | 97 | 962.7 |
| 20260509110635 | 51 | 166 | 0.9 | 1.7 | 0.00 | 0.00 | 0.00 | 97 | 962.6 |
| 20260509105632 | 51 | 132 | 1.7 | 3.5 | 0.00 | 0.00 | 0.00 | 97 | 962.6 |
| 20260509104629 | 51 | 104 | 0.9 | 1.7 | 0.00 | 0.00 | 0.00 | 97 | 962.6 |
| 20260509103626 | 51 | 152 | 0.9 | 0.9 | 0.00 | 0.00 | 0.00 | 97 | 962.6 |
| 20260509102623 | 51 | 153 | 1.7 | 1.7 | 0.00 | 0.00 | 0.00 | 97 | 962.7 |
| 20260509101620 | 51 | 137 | 1.7 | 2.6 | 0.00 | 0.00 | 0.00 | 97 | 962.7 |
| 20260509100616 | 51 | 0 | 0.0 | 0.0 | 0.00 | 0.00 | 0.00 | 97 | 962.7 |
| 20260509095613 | 51 | 151 | 0.9 | 1.7 | 0.00 | 0.00 | 0.00 | 97 | 962.7 |
| 20260509094610 | 51 | 210 | 0.9 | 1.7 | 0.00 | 0.00 | 0.00 | 97 | 962.7 |
| 20260509093607 | 51 | 256 | 0.0 | 0.0 | 0.00 | 0.00 | 0.00 | 97 | 962.8 |
| 20260509092604 | 51 | 152 | 0.9 | 1.7 | 0.00 | 0.00 | 0.00 | 97 | 962.9 |
| 20260509091601 | 51 | 143 | 0.9 | 0.9 | 0.00 | 0.00 | 0.00 | 97 | 963.0 |
| 20260509090558 | 51 | 212 | 0.9 | 0.9 | 0.00 | 0.00 | 0.00 | 97 | 963.1 |
| 20260509085555 | 51 | 160 | 0.9 | 1.7 | 0.00 | 0.00 | 0.00 | 97 | 963.1 |
| 20260509084552 | 51 | 145 | 0.9 | 2.6 | 0.00 | 0.00 | 0.00 | 97 | 963.2 |
| 20260509083548 | 51 | 311 | 0.9 | 1.7 | 0.00 | 0.00 | 0.00 | 97 | 963.3 |
| 20260509082545 | 51 | 167 | 0.9 | 0.9 | 0.00 | 0.00 | 0.00 | 97 | 963.3 |
| 20260509081542 | 51 | 139 | 1.7 | 1.7 | 0.00 | 0.00 | 0.00 | 97 | 963.3 |
| 20260509080539 | 51 | 147 | 2.6 | 3.5 | 0.00 | 0.00 | 0.00 | 97 | 963.2 |
| 20260509075536 | 51 | 152 | 1.7 | 2.6 | 0.00 | 0.00 | 0.00 | 97 | 963.2 |
| 20260509074533 | 51 | 200 | 0.9 | 1.7 | 0.00 | 0.00 | 0.00 | 97 | 963.2 |
| 20260509073530 | 51 | 138 | 0.9 | 1.7 | 0.00 | 0.00 | 0.00 | 97 | 963.2 |
| 20260509072527 | 51 | 133 | 0.9 | 1.7 | 0.00 | 0.00 | 0.00 | 97 | 963.4 |
| 20260509071524 | 50 | 106 | 0.9 | 0.9 | 0.00 | 0.00 | 0.00 | 97 | 963.5 |
| 20260509070520 | 50 | 148 | 1.7 | 2.6 | 0.00 | 0.00 | 0.00 | 97 | 963.5 |
| 20260509065517 | 50 | 115 | 1.7 | 2.6 | 0.00 | 0.00 | 0.00 | 97 | 963.5 |
| 20260509064514 | 50 | 191 | 0.9 | 0.9 | 0.00 | 0.00 | 0.00 | 97 | 963.6 |
| 20260509063511 | 50 | 230 | 1.7 | 2.6 | 0.00 | 0.00 | 0.00 | 97 | 963.6 |
| 20260509062509 | 50 | 144 | 0.9 | 1.7 | 0.00 | 0.00 | 0.00 | 97 | 963.7 |
| 20260509061505 | 50 | 171 | 0.9 | 1.7 | 0.00 | 0.00 | 0.00 | 97 | 963.9 |
| 20260509060502 | 50 | 132 | 0.9 | 0.9 | 0.00 | 0.00 | 0.00 | 96 | 964.0 |
| 20260509055459 | 50 | 161 | 0.9 | 1.7 | 0.00 | 0.00 | 0.00 | 96 | 964.1 |